Startpagina
METAR-TAF:

METAR-TAF

Vliegvelden :

Productieplatform

Euro, Nederland

breedte: 51-59-52N, lengte: 3-16-30E, hoogte: 18 m

Actueel weer

Dit bericht is 25 minuten geleden gemaakt, om 22:25 UTC
Wind 13 kt uit het noorden
Temperatuur 20°C
Vochtigheid 68%
Druk 1015 hPa
Zicht 10 km of meer

METAR: EHSA 192225Z AUTO 36013KT 9999 ///////// 20/14 Q1015 W21/H8

Tijdstip: 00:50 (22:50 UTC)


TAF: ontbreekt

Waarnemingen en weersverwachtingen van meer dan 4000 vliegvelden (METAR en TAF).

De beschikbare stations zijn de gele en rode punten op de kaart.

Ga met uw muis naar het station om de naam te zien.

Klik dan om waarnemingen en weersverwachtingen te zien.

kaart wijzigen: klik op de groene knoppen met een zwart kruis om in te zoomen, op de groene knop met een streepje om uit te zoomen of op de groene pijlen voor aangrenzende kaarten.


METAR-TAF: